[[{"header":{"parameterUnit":"m.s-1","parameterCategory":1,"la1":30.2991,"la2":30.254,"lo1":-89.0895,"lo2":-89.0444,"dy":0.0017,"dx":0.0017,"nx":28,"ny":28,"refTime":"2024-06-26T21:00:00:Z","depth":0,"parameterNumber":2,"parameterNumberName":"U-component_of_WINDS"},"data":[0,0,0,0,0,0,0,0,0,0,0,0,0,0,0,0,0,0,0,0,0,0,0,0,0,0,0,0,0,0,0,0,0,0,0,0,0,0,0,0,0,0,0,0,0,0,0,0,0,0,0,0,0,0,0,0,0,0,6.9582,6.9583,0,6.971,6.9712,6.9713,6.9589,6.9584,6.9579,6.9574,6.9707,6.9715,6.9723,0,0,0,0,0,0,0,0,0,0,0,0,0,6.923,6.9237,6.9581,6.9583,6.9585,6.971,6.9712,6.9713,6.959,6.9584,6.9578,6.9572,6.9705,6.9714,6.9724,0,0,0,0,0,0,0,0,0,0,0,0,0,6.9373,6.9239,6.9581,6.9538,6.9535,6.9709,6.9712,6.9714,6.9591,6.9583,6.9576,6.9569,6.9702,6.9713,6.9725,6.9949,0,0,6.9763,6.9768,0,0,0,0,0,0,0,0,6.9365,6.9386,6.9543,6.9541,6.9539,6.9626,6.9636,6.9793,6.9593,6.957,6.9574,6.9565,6.9686,6.9699,6.974,6.9955,6.9961,6.9764,6.9771,6.9777,6.978,0,0,0,0,0,0,0,6.9355,6.938,6.9632,6.9545,6.9543,6.9513,6.9525,6.9665,6.9668,6.9571,6.9563,6.9579,6.9684,6.9728,6.9742,6.9963,6.9764,6.9774,6.9782,6.9787,7.0368,7.0376,0,0,0,0,0,0,6.935,6.9372,6.9628,6.9636,6.9432,6.9525,6.9538,6.9605,6.9666,6.9668,6.9586,6.9573,6.9711,6.9728,6.9746,7.0011,6.9776,6.9788,6.9795,7.036,7.037,7.0379,0,0,0,0,0,0,6.9343,6.9374,6.9623,6.9502,6.9531,6.9539,6.9615,6.9612,6.9656,6.9677,6.9677,6.963,6.9706,6.9729,6.9899,7.0014,6.9793,6.9805,7.035,7.0363,7.0374,7.0543,0,0,0,0,0,0,6.9333,6.9372,6.9457,6.9505,6.9538,6.9774,6.9622,6.962,6.9677,6.9662,6.9719,6.9721,6.9702,6.9882,6.9912,7.0026,6.9814,7.034,7.0356,7.037,7.0527,7.0559,7.0587,0,0,0,0,0,6.9321,6.95,6.9462,6.9493,6.9644,6.9781,6.98,6.9773,6.9687,6.9772,6.9786,6.972,6.9997,6.99,6.9933,7.0053,7.0333,7.0351,7.0369,7.0513,7.0553,7.0586,0,0,0,0,0,0,6.9465,6.9505,6.9463,6.9663,6.9719,6.9759,6.9866,6.9816,6.9898,6.9881,6.9845,6.9859,7.0039,7.0063,6.9955,7.0273,7.0151,7.0176,7.0249,7.0287,7.0316,7.0306,6.9824,0,0,0,0,0,6.952,6.9627,6.9657,6.983,6.986,6.9859,6.9917,6.9892,6.9949,6.9973,6.9998,7.0057,7.0157,7.0224,7.0317,7.0531,7.0541,7.063,7.066,7.0684,7.0706,7.0819,7.0859,7.0438,7.0438,7.0438,0,0,6.9634,6.967,6.9739,6.9859,6.99,7.0012,6.988,7.0004,7.0086,6.9991,7.0153,7.0175,7.0238,7.0431,7.0517,7.0456,7.0825,7.0707,7.0727,7.0735,7.0842,7.0882,7.0917,7.0451,7.0449,7.0447,0,0,6.9899,6.9938,7.0085,7.0129,7.0192,7.019,7.0226,7.0275,7.0285,7.0447,7.0378,7.0476,7.065,7.0697,7.0744,7.1029,7.097,7.106,7.1215,7.1327,7.136,7.1389,7.1489,7.1525,7.1083,7.1083,7.1083,0,7.0033,7.0199,7.0167,7.0296,7.0351,7.0271,7.042,7.0464,7.0555,7.0595,7.0526,7.0742,7.0779,7.0981,7.105,7.1092,7.1131,7.1052,7.1357,7.1386,7.1413,7.1508,7.1546,7.1093,7.1092,7.1091,7.109,0,7.036,7.0476,7.0587,7.0677,7.0744,7.0883,7.0873,7.0945,7.0915,7.0921,7.1086,7.1128,7.1228,7.1275,7.1247,7.1473,7.1433,7.1363,7.1239,7.1464,7.1552,7.1588,7.1108,7.1104,7.1101,7.1099,0,0,7.0717,7.0788,7.0829,7.0868,7.0933,7.1022,7.1158,7.1255,7.1317,7.1384,7.1495,7.1645,7.1579,7.1632,7.1609,7.1707,7.1928,7.1623,7.1624,7.1677,7.2179,7.223,7.2272,7.1891,7.1898,7.1903,7.2172,0,7.0982,7.1216,7.1192,7.1415,7.1521,7.1447,7.1565,7.1618,7.1627,7.1719,7.1729,7.1835,7.1741,7.1773,7.1867,7.1881,7.2028,7.1862,7.1994,7.1999,7.1977,7.2319,7.2374,7.2625,7.2207,7.2213,7.2217,0,7.1322,7.1399,7.1633,7.1681,7.1724,7.1831,7.1917,7.2007,7.2065,7.2065,7.2126,7.2086,7.2222,7.2098,7.2285,7.2172,7.2225,7.2241,7.225,7.2259,7.212,7.2335,7.2705,7.2742,7.2272,7.2267,7.2263,0,7.1556,7.172,7.1879,7.1916,7.1977,7.2053,7.2082,7.2133,7.2193,7.227,7.2308,7.2401,7.2451,7.2524,7.251,7.2421,7.27,7.2575,7.2703,7.2704,7.2763,7.2759,7.3144,7.2802,7.2801,7.2801,7.28,0,7.1854,7.1998,7.1985,7.2084,7.2244,7.2216,7.2376,7.2396,7.2442,7.2543,7.2486,7.2582,7.2559,7.2655,7.2645,7.28,7.2824,7.2828,7.2823,7.2831,7.2831,7.2863,7.2845,7.2811,7.2808,7.2806,7.2805,0,7.2141,7.2139,7.2308,7.2352,7.2366,7.2482,7.252,7.2613,7.2618,7.2747,7.2775,7.2784,7.2893,7.2887,7.3012,7.3005,7.3196,7.3172,7.3176,7.317,7.3297,7.3284,7.3715,7.3769,7.3394,7.3398,7.3401,0,7.2329,7.2439,7.2495,7.2558,7.2592,7.2695,7.2756,7.2734,7.28,7.2875,7.2959,7.3063,7.3145,7.3323,7.3341,7.3435,7.3412,7.3556,7.3425,7.343,7.3411,7.3403,7.3414,7.3581,7.3585,7.3589,7.3592,0,7.2664,7.2657,7.2746,7.2837,7.2911,7.2981,7.3044,7.31,7.3084,7.3161,7.3272,7.3336,7.3462,7.3566,7.3657,7.3686,7.3637,7.3633,7.3667,7.3675,7.3672,7.3673,7.3243,7.3623,7.362,7.3617,7.3616,7.3614,7.2906,7.2999,7.3053,7.3155,7.32,7.3261,7.335,7.3367,7.3459,7.3559,7.3542,7.3666,7.3722,7.3838,7.3877,7.3974,7.3922,7.3972,7.3984,7.3996,7.401,7.3659,7.3991,7.399,7.3989,7.3988,7.3988,0,7.3234,7.3266,7.336,7.345,7.3531,7.3478,7.3546,7.3616,7.3726,7.3782,7.3864,7.3992,7.4092,7.4118,7.4215,7.4288,7.4267,7.4314,7.4307,7.4314,7.4052,7.4011,7.4328,7.4328,7.4328,7.4328,7.4328,7.4328,7.3415,7.357,7.357,7.3747,7.3777,7.3898,7.3941,7.3997,7.4042,7.4186,7.4269,7.4286,7.433,7.443,7.452,7.4525,7.4562,7.4617,7.4613,7.4367,7.4333,7.43,7.4262,7.4626,7.4627,7.4867,7.4869,7.4871]},{"header":{"parameterUnit":"m.s-1","parameterCategory":1,"la1":30.2991,"la2":30.254,"lo1":-89.0895,"lo2":-89.0444,"dy":0.0017,"dx":0.0017,"nx":28,"ny":28,"refTime":"2024-06-26T21:00:00:Z","depth":0,"parameterNumber":3,"parameterNumberName":"V-component_of_WINDS"},"data":[0,0,0,0,0,0,0,0,0,0,0,0,0,0,0,0,0,0,0,0,0,0,0,0,0,0,0,0,0,0,0,0,0,0,0,0,0,0,0,0,0,0,0,0,0,0,0,0,0,0,0,0,0,0,0,0,0,0,2.1494,2.1496,0,2.1615,2.1616,2.1618,2.1623,2.1621,2.162,2.1619,2.1748,2.1752,2.1757,0,0,0,0,0,0,0,0,0,0,0,0,0,2.1274,2.1278,2.1494,2.1496,2.1497,2.1615,2.1616,2.1618,2.1623,2.1621,2.162,2.1618,2.1746,2.1752,2.1757,0,0,0,0,0,0,0,0,0,0,0,0,0,2.1379,2.1279,2.1494,2.1514,2.1517,2.1614,2.1616,2.1618,2.1623,2.1621,2.1619,2.1617,2.1744,2.1751,2.1758,2.1846,0,0,2.178,2.1783,0,0,0,0,0,0,0,0,2.1373,2.1388,2.1509,2.1513,2.1516,2.1601,2.1586,2.1695,2.1624,2.1583,2.1619,2.1616,2.1701,2.1712,2.1739,2.1852,2.1857,2.1781,2.1785,2.1788,2.179,0,0,0,0,0,0,0,2.1366,2.1382,2.1542,2.1511,2.1515,2.1518,2.1531,2.1606,2.1653,2.1587,2.1587,2.1601,2.1703,2.1732,2.1742,2.1859,2.1781,2.1787,2.1791,2.1794,2.205,2.2052,0,0,0,0,0,0,2.1354,2.1376,2.1538,2.1546,2.1438,2.1524,2.1538,2.1576,2.1652,2.1661,2.1603,2.1601,2.1721,2.1734,2.1747,2.1854,2.1788,2.1795,2.1799,2.2047,2.205,2.2053,0,0,0,0,0,0,2.1349,2.1368,2.1533,2.1461,2.1482,2.153,2.1573,2.158,2.1609,2.1664,2.1673,2.1624,2.172,2.1737,2.1821,2.1859,2.1798,2.1805,2.2044,2.2048,2.2052,2.207,0,0,0,0,0,0,2.1343,2.1367,2.1399,2.1462,2.1486,2.1604,2.1575,2.1584,2.1621,2.162,2.1687,2.1696,2.172,2.181,2.1828,2.1868,2.181,2.2041,2.2046,2.2051,2.2066,2.2074,2.208,0,0,0,0,0,2.1335,2.1401,2.1401,2.1421,2.1528,2.1606,2.162,2.1644,2.1624,2.1658,2.1693,2.1694,2.1852,2.1819,2.1839,2.1881,2.2039,2.2045,2.205,2.2063,2.2072,2.208,0,0,0,0,0,0,2.1344,2.141,2.141,2.1498,2.1546,2.1607,2.165,2.1653,2.171,2.1706,2.1736,2.1751,2.1834,2.1866,2.1828,2.197,2.1943,2.1953,2.1946,2.1955,2.1962,2.1953,2.1816,0,0,0,0,0,2.1356,2.1412,2.1467,2.1539,2.1563,2.1602,2.1638,2.1652,2.1704,2.1725,2.1766,2.1818,2.1879,2.1919,2.1978,2.2071,2.2086,2.211,2.2117,2.2123,2.2131,2.2183,2.2194,2.2072,2.2071,2.2071,0,0,2.1382,2.1424,2.1459,2.1542,2.1581,2.164,2.162,2.1684,2.1728,2.1735,2.1816,2.1848,2.1908,2.1996,2.2038,2.2026,2.2168,2.213,2.2134,2.2139,2.219,2.2201,2.2211,2.2075,2.2075,2.2074,0,0,2.1459,2.1496,2.156,2.1599,2.1658,2.1683,2.1699,2.1759,2.178,2.1861,2.1867,2.1922,2.2027,2.2069,2.2104,2.2196,2.2199,2.2215,2.2253,2.2302,2.2312,2.2321,2.2354,2.2366,2.2223,2.2223,2.2223,0,2.1484,2.1572,2.1594,2.1657,2.1694,2.17,2.1766,2.1804,2.1879,2.1906,2.1891,2.2022,2.2063,2.2161,2.2183,2.2211,2.2231,2.2208,2.2308,2.2317,2.2326,2.2358,2.2371,2.2225,2.2225,2.2224,2.2224,0,2.16,2.1661,2.1706,2.1776,2.1818,2.1883,2.1916,2.1956,2.1967,2.1994,2.2077,2.2126,2.2196,2.222,2.2232,2.232,2.2311,2.2302,2.2276,2.2339,2.237,2.2382,2.2227,2.2226,2.2226,2.2226,0,0,2.1687,2.1768,2.1784,2.1816,2.1881,2.1929,2.1994,2.206,2.2094,2.2146,2.2202,2.229,2.2282,2.2322,2.2338,2.2382,2.2452,2.2368,2.2369,2.2382,2.2553,2.256,2.2574,2.2454,2.2456,2.2458,2.2548,0,2.1772,2.1885,2.1907,2.2006,2.2063,2.207,2.2127,2.2173,2.2201,2.2254,2.2285,2.2347,2.2331,2.2355,2.2399,2.2434,2.2487,2.2428,2.2508,2.251,2.2493,2.259,2.2597,2.268,2.256,2.2563,2.2564,0,2.1886,2.1938,2.2043,2.2099,2.2124,2.2174,2.2236,2.2287,2.234,2.2357,2.2401,2.2412,2.2482,2.2451,2.2548,2.2507,2.2541,2.2563,2.2567,2.2576,2.2541,2.2602,2.2707,2.272,2.2583,2.2582,2.258,0,2.1939,2.2036,2.2111,2.2139,2.2206,2.2242,2.2272,2.2323,2.2361,2.2415,2.2441,2.2503,2.2538,2.2587,2.2615,2.259,2.271,2.2682,2.2727,2.2726,2.2753,2.2751,2.2865,2.2773,2.2773,2.2773,2.2773,0,2.2032,2.2096,2.2136,2.2183,2.2255,2.2279,2.235,2.238,2.2426,2.2479,2.2489,2.2539,2.2573,2.2629,2.2652,2.2729,2.2744,2.2761,2.2766,2.276,2.2758,2.2784,2.2779,2.2776,2.2776,2.2775,2.2774,0,2.2104,2.2134,2.2216,2.2272,2.2288,2.2339,2.2388,2.2434,2.2461,2.2528,2.2546,2.2589,2.2655,2.2687,2.277,2.2785,2.2872,2.2874,2.2853,2.2856,2.2899,2.2895,2.3035,2.3054,2.2949,2.295,2.295,0,2.2161,2.2211,2.2272,2.2307,2.2337,2.2395,2.2433,2.2459,2.2499,2.2563,2.2601,2.2667,2.2721,2.2826,2.2866,2.2929,2.2933,2.2977,2.2943,2.2935,2.2934,2.2931,2.2936,2.2984,2.2985,2.2986,2.2986,0,2.226,2.2272,2.2326,2.2385,2.243,2.2478,2.2525,2.2554,2.2588,2.2633,2.2699,2.2741,2.2824,2.2889,2.2955,2.2988,2.2994,2.2997,2.3011,2.3005,2.2992,2.3,2.2871,2.2994,2.2993,2.2992,2.2992,2.2992,2.2328,2.2371,2.2421,2.248,2.2518,2.2562,2.2608,2.264,2.2695,2.2763,2.2776,2.2846,2.2899,2.2987,2.3022,2.3079,2.3069,2.3089,2.3094,2.3099,2.3101,2.2982,2.3091,2.3091,2.309,2.309,2.309,0,2.2427,2.2459,2.2513,2.2578,2.2626,2.2624,2.2676,2.2717,2.2778,2.2825,2.2877,2.2954,2.3017,2.3061,2.3126,2.3163,2.3167,2.3179,2.3177,2.3185,2.3106,2.3088,2.3175,2.3175,2.3175,2.3175,2.3175,2.3175,2.2484,2.2558,2.2576,2.2669,2.2701,2.2769,2.2799,2.284,2.2878,2.2962,2.3014,2.3041,2.3088,2.3156,2.3214,2.3226,2.325,2.3262,2.3273,2.3199,2.319,2.3182,2.3165,2.3267,2.3267,2.3348,2.3348,2.3349]}]]